N0ZMJ-3 Weather Reports


Display with metric or nautical units.
time (UTC)temp
F
wind
direction
speed
MPH
gust
MPH
rain 1hr
in
rain 24hr
in
rain mn
in
humidity
%
barometer
mb
20260904212059 90 97 6.0 9.0 0.00 0.00 0.00 53 1011.4
20260904211427 90 97 6.0 10.0 0.00 0.00 0.00 52 1011.4
20260904211403 90 97 6.0 10.0 0.00 0.00 0.00 52 1011.4
20260904210659 90 83 5.0 9.0 0.00 0.00 0.00 52 1011.6
20260904210427 90 95 5.0 10.0 0.00 0.00 0.00 51 1011.5
20260904205959 90 76 5.0 10.0 0.00 0.00 0.00 51 1011.5
20260904205429 90 68 4.0 8.0 0.00 0.00 0.00 51 1011.6
20260904205306 90 68 4.0 8.0 0.00 0.00 0.00 51 1011.6
20260904204602 90 92 4.0 8.0 0.00 0.00 0.00 50 1011.6
20260904204429 90 104 5.0 9.0 0.00 0.00 0.00 50 1011.5
20260904203903 90 96 4.0 10.0 0.00 0.00 0.00 50 1011.6
20260904203428 90 102 6.0 10.0 0.00 0.00 0.00 50 1011.5
20260904203201 90 102 6.0 10.0 0.00 0.00 0.00 50 1011.5
20260904202501 90 103 5.0 11.0 0.00 0.00 0.00 46 1011.5
20260904202428 90 103 5.0 11.0 0.00 0.00 0.00 46 1011.5
20260904201800 90 97 6.0 11.0 0.00 0.00 0.00 48 1011.5
20260904201428 90 99 6.0 11.0 0.00 0.00 0.00 48 1011.4
20260904201107 90 99 6.0 11.0 0.00 0.00 0.00 48 1011.4
20260904200428 90 101 8.0 11.0 0.00 0.00 0.00 46 1011.5
20260904200401 90 101 8.0 11.0 0.00 0.00 0.00 46 1011.5
20260904195701 90 88 5.0 9.0 0.00 0.00 0.00 48 1011.5
20260904195428 90 104 5.0 9.0 0.00 0.00 0.00 48 1011.5
20260904195001 90 93 4.0 9.0 0.00 0.00 0.00 50 1011.5
20260904194429 90 88 4.0 10.0 0.00 0.00 0.00 49 1011.5
20260904194301 90 88 4.0 10.0 0.00 0.00 0.00 49 1011.5
20260904193605 90 80 5.0 10.0 0.00 0.00 0.00 50 1011.6
20260904193429 90 87 6.0 10.0 0.00 0.00 0.00 50 1011.7
20260904192429 90 93 5.0 10.0 0.00 0.00 0.00 48 1011.6
20260904192201 90 93 5.0 10.0 0.00 0.00 0.00 48 1011.6
20260904191502 90 99 6.0 10.0 0.00 0.00 0.00 48 1011.8
20260904191428 90 99 6.0 10.0 0.00 0.00 0.00 48 1011.8
20260904190801 90 95 5.0 10.0 0.00 0.00 0.00 47 1011.8
20260904190428 90 95 5.0 10.0 0.00 0.00 0.00 48 1011.9
20260904190059 90 95 5.0 10.0 0.00 0.00 0.00 48 1011.9
20260904185428 90 104 5.0 9.0 0.00 0.00 0.00 47 1011.9
20260904185401 90 104 5.0 9.0 0.00 0.00 0.00 47 1011.9
20260904184702 90 97 6.0 11.0 0.00 0.00 0.00 47 1011.8
20260904184428 90 104 7.0 11.0 0.00 0.00 0.00 46 1011.9
20260904183959 90 100 7.0 11.0 0.00 0.00 0.00 46 1011.7
20260904183427 90 88 5.0 11.0 0.00 0.00 0.00 48 1011.9
20260904183300 90 88 5.0 11.0 0.00 0.00 0.00 48 1011.9
20260904182601 90 94 6.0 10.0 0.00 0.00 0.00 48 1011.9
20260904182427 90 99 7.0 10.0 0.00 0.00 0.00 48 1011.8
20260904181902 90 81 5.0 11.0 0.00 0.00 0.00 49 1012.0
20260904181427 90 88 5.0 12.0 0.00 0.00 0.00 48 1011.9
20260904181200 90 88 5.0 12.0 0.00 0.00 0.00 48 1011.9
20260904180503 90 89 7.0 11.0 0.00 0.00 0.00 48 1011.7
20260904180429 90 89 7.0 11.0 0.00 0.00 0.00 48 1011.7
20260904175802 90 99 6.0 11.0 0.00 0.00 0.00 47 1011.8
20260904175429 90 94 6.0 10.0 0.00 0.00 0.00 48 1011.8
20260904175102 90 94 6.0 10.0 0.00 0.00 0.00 48 1011.8
20260904174429 90 82 6.0 10.0 0.00 0.00 0.00 50 1011.7
20260904174400 90 82 6.0 10.0 0.00 0.00 0.00 50 1011.7
20260904173700 89 97 6.0 10.0 0.00 0.00 0.00 50 1011.7
20260904173428 89 96 5.0 11.0 0.00 0.00 0.00 52 1011.7
20260904173003 89 94 6.0 11.0 0.00 0.00 0.00 54 1011.7
20260904172428 89 76 6.0 11.0 0.00 0.00 0.00 55 1011.6
20260904172305 89 76 6.0 11.0 0.00 0.00 0.00 55 1011.6
20260904171600 89 93 4.0 11.0 0.00 0.00 0.00 57 1011.5
20260904171428 88 82 4.0 9.0 0.00 0.00 0.00 58 1011.5
20260904170900 88 100 4.0 11.0 0.00 0.00 0.00 59 1011.5
20260904170428 88 91 5.0 11.0 0.00 0.00 0.00 60 1011.5
20260904170200 88 91 5.0 11.0 0.00 0.00 0.00 60 1011.5
20260904165459 87 84 4.0 9.0 0.00 0.00 0.00 59 1011.3
20260904165428 87 84 4.0 9.0 0.00 0.00 0.00 59 1011.3
20260904164427 86 97 7.0 10.0 0.00 0.00 0.00 63 1011.3
20260904164105 86 97 7.0 10.0 0.00 0.00 0.00 63 1011.3
20260904163428 85 57 3.0 6.0 0.00 0.00 0.00 66 1011.4
20260904163400 85 57 3.0 6.0 0.00 0.00 0.00 66 1011.4
20260904162700 85 72 3.0 6.0 0.00 0.00 0.00 67 1011.3
20260904162428 84 76 4.0 6.0 0.00 0.00 0.00 68 1011.3
20260904162007 84 82 3.0 6.0 0.00 0.00 0.00 73 1011.3
20260904161428 83 56 3.0 7.0 0.00 0.00 0.00 79 1011.3
20260904161301 83 56 3.0 7.0 0.00 0.00 0.00 79 1011.3
20260904160428 82 71 3.0 7.0 0.00 0.00 0.00 82 1011.3
20260904155902 82 59 3.0 6.0 0.00 0.00 0.00 83 1011.3
20260904155427 81 67 1.0 5.0 0.00 0.00 0.00 84 1011.3
20260904155201 81 67 1.0 5.0 0.00 0.00 0.00 84 1011.3
20260904154500 80 85 3.0 5.0 0.00 0.00 0.00 86 1011.2
20260904154427 80 85 3.0 5.0 0.00 0.00 0.00 86 1011.2
20260904153801 80 63 2.0 4.0 0.00 0.00 0.00 88 1011.3
20260904153427 79 55 1.0 4.0 0.00 0.00 0.00 89 1011.3
20260904153101 79 55 1.0 4.0 0.00 0.00 0.00 89 1011.3
20260904152429 78 57 0.0 3.0 0.00 0.00 0.00 90 1011.2
20260904152403 78 57 0.0 3.0 0.00 0.00 0.00 90 1011.2
20260904151428 78 57 3.0 5.0 0.00 0.00 0.00 90 1011.1
20260904150428 77 112 2.0 4.0 0.00 0.00 0.00 93 1011.1
20260904150311 77 112 2.0 4.0 0.00 0.00 0.00 93 1011.1
20260904145602 76 112 2.0 3.0 0.00 0.00 0.00 93 1011.1
20260904145428 76 112 0.0 3.0 0.00 0.00 0.00 95 1011.1
20260904144902 76 112 0.0 3.0 0.00 0.00 0.00 95 1011.1
20260904144428 75 112 0.0 2.0 0.00 0.00 0.00 95 1010.9
20260904144201 75 112 0.0 2.0 0.00 0.00 0.00 95 1010.9
20260904143503 75 112 0.0 3.0 0.00 0.00 0.00 97 1010.9
20260904143428 75 112 0.0 3.0 0.00 0.00 0.00 97 1010.9
20260904142800 75 112 1.0 3.0 0.00 0.00 0.00 97 1010.8
20260904142427 74 112 0.0 3.0 0.00 0.00 0.00 98 1010.7
20260904142059 74 112 0.0 3.0 0.00 0.00 0.00 98 1010.7
20260904141427 73 112 0.0 1.0 0.00 0.00 0.00 100 1010.9
20260904141401 73 112 0.0 1.0 0.00 0.00 0.00 100 1010.9
20260904140700 73 112 0.0 1.0 0.00 0.00 0.00 100 1010.9
20260904140429 72 112 0.0 0.0 0.00 0.00 0.00 100 1010.9
20260904140005 72 112 0.0 1.0 0.00 0.00 0.00 100 1010.9
20260904135429 72 112 0.0 1.0 0.00 0.00 0.00 100 1010.9
20260904135306 72 112 0.0 1.0 0.00 0.00 0.00 100 1010.9
20260904134428 71 112 0.0 1.0 0.00 0.00 0.00 100 1010.7
20260904133900 71 112 0.0 0.0 0.00 0.00 0.00 100 1010.7
20260904133428 71 112 0.0 0.0 0.00 0.00 0.00 100 1010.8
20260904133200 71 112 0.0 0.0 0.00 0.00 0.00 100 1010.8
20260904132428 70 112 0.0 1.0 0.00 0.00 0.00 100 1010.7
20260904131800 70 112 0.0 1.0 0.00 0.00 0.00 100 1010.6
20260904131428 69 112 0.0 1.0 0.00 0.00 0.00 100 1010.6
20260904131101 69 112 0.0 1.0 0.00 0.00 0.00 100 1010.6
20260904130428 68 112 0.0 1.0 0.00 0.00 0.00 100 1010.5
20260904130403 68 112 0.0 1.0 0.00 0.00 0.00 100 1010.5
20260904125659 68 112 0.0 0.0 0.00 0.00 0.00 100 1010.4
20260904125428 67 112 0.0 0.0 0.00 0.00 0.00 100 1010.5
20260904125001 67 112 0.0 0.0 0.00 0.00 0.00 100 1010.3
20260904124427 66 112 0.0 0.0 0.00 0.00 0.00 100 1010.3
20260904124301 66 112 0.0 0.0 0.00 0.00 0.00 100 1010.3
20260904123559 66 112 0.0 0.0 0.00 0.00 0.00 100 1010.3
20260904123428 66 112 0.0 0.0 0.00 0.00 0.00 100 1010.2
20260904122900 66 112 0.0 0.0 0.00 0.00 0.00 100 1010.2
20260904122428 66 112 0.0 0.0 0.00 0.00 0.00 100 1010.1
20260904122159 66 112 0.0 0.0 0.00 0.00 0.00 100 1010.1
20260904121504 66 112 0.0 0.0 0.00 0.00 0.00 100 1010.1
20260904121428 66 112 0.0 0.0 0.00 0.00 0.00 100 1010.1
20260904120800 66 112 0.0 0.0 0.00 0.00 0.00 100 1010.1
20260904120428 66 112 0.0 0.0 0.00 0.00 0.00 100 1010.1
20260904120059 66 112 0.0 0.0 0.00 0.00 0.00 100 1010.1
20260904115427 66 112 0.0 0.0 0.00 0.00 0.00 100 1009.9
20260904115359 66 112 0.0 0.0 0.00 0.00 0.00 100 1009.9
20260904114428 67 112 0.0 1.0 0.00 0.00 0.00 100 1009.8
20260904114003 67 112 0.0 1.0 0.00 0.00 0.00 100 1009.9
20260904113428 67 112 0.0 1.0 0.00 0.00 0.00 100 1009.9
20260904113300 67 112 0.0 1.0 0.00 0.00 0.00 100 1009.9
20260904112600 67 112 0.0 1.0 0.00 0.00 0.00 100 1009.7
20260904112428 67 112 0.0 1.0 0.00 0.00 0.00 100 1009.6
20260904111859 67 112 0.0 1.0 0.00 0.00 0.00 100 1009.5
20260904111427 66 112 0.0 2.0 0.00 0.00 0.00 100 1009.5
20260904111200 66 112 0.0 2.0 0.00 0.00 0.00 100 1009.5
20260904110507 66 112 1.0 2.0 0.00 0.00 0.00 100 1009.5
20260904110427 66 112 1.0 2.0 0.00 0.00 0.00 100 1009.5
20260904105802 66 150 0.0 2.0 0.00 0.00 0.00 100 1009.5
20260904105429 66 150 0.0 2.0 0.00 0.00 0.00 100 1009.4
20260904105100 66 150 0.0 2.0 0.00 0.00 0.00 100 1009.4
20260904104429 67 150 0.0 2.0 0.00 0.00 0.00 100 1009.3
20260904104400 67 150 0.0 2.0 0.00 0.00 0.00 100 1009.3
20260904103659 67 150 0.0 2.0 0.00 0.00 0.00 100 1009.3
20260904103428 67 150 0.0 2.0 0.00 0.00 0.00 100 1009.4
20260904102428 67 150 0.0 1.0 0.00 0.00 0.00 100 1009.3
20260904102300 67 150 0.0 1.0 0.00 0.00 0.00 100 1009.3
20260904101427 67 150 0.0 0.0 0.00 0.00 0.00 100 1009.2
20260904100901 67 150 0.0 0.0 0.00 0.00 0.00 100 1009.1
20260904100427 67 150 0.0 0.0 0.00 0.00 0.00 100 1009.2
20260904100200 67 150 0.0 0.0 0.00 0.00 0.00 100 1009.2
20260904095427 67 150 0.0 1.0 0.00 0.00 0.00 100 1009.2
20260904094800 67 150 0.0 1.0 0.00 0.00 0.00 100 1009.1
20260904094429 67 150 0.0 0.0 0.00 0.00 0.00 100 1009.1
20260904094101 67 150 0.0 0.0 0.00 0.00 0.00 100 1009.1
20260904093429 68 150 0.0 0.0 0.00 0.00 0.00 100 1008.9
20260904093402 68 150 0.0 0.0 0.00 0.00 0.00 100 1008.9
20260904092700 68 150 0.0 1.0 0.00 0.00 0.00 100 1008.9
20260904092429 68 150 0.0 1.0 0.00 0.00 0.00 100 1008.9
20260904092003 68 150 0.0 1.0 0.00 0.00 0.00 100 1008.9
20260904091428 68 150 0.0 0.0 0.00 0.00 0.00 100 1008.8
20260904091301 68 150 0.0 0.0 0.00 0.00 0.00 100 1008.8
20260904090600 68 150 0.0 0.0 0.00 0.00 0.00 100 1008.7
20260904090428 68 150 0.0 0.0 0.00 0.00 0.00 100 1008.6
20260904085900 68 150 0.0 0.0 0.00 0.00 0.00 100 1008.5
20260904085428 68 150 0.0 0.0 0.00 0.00 0.00 100 1008.5
20260904085200 68 150 0.0 0.0 0.00 0.00 0.00 100 1008.5
20260904084502 68 150 0.0 0.0 0.00 0.00 0.00 100 1008.5
20260904084428 68 150 0.0 0.0 0.00 0.00 0.00 100 1008.5
20260904083800 69 150 0.0 0.0 0.00 0.00 0.00 100 1008.6
20260904083428 69 150 0.0 1.0 0.00 0.00 0.00 100 1008.6
20260904083100 69 150 0.0 1.0 0.00 0.00 0.00 100 1008.6
20260904082428 69 150 0.0 0.0 0.00 0.00 0.00 100 1008.6
20260904082400 69 150 0.0 0.0 0.00 0.00 0.00 100 1008.6
20260904081659 69 150 0.0 0.0 0.00 0.00 0.00 100 1008.5
20260904081427 69 150 0.0 2.0 0.00 0.00 0.00 100 1008.6
20260904080959 69 150 0.0 2.0 0.00 0.00 0.00 100 1008.5
20260904080427 69 150 0.0 1.0 0.00 0.00 0.00 100 1008.6
20260904080302 69 150 0.0 1.0 0.00 0.00 0.00 100 1008.6
20260904075603 69 150 0.0 2.0 0.00 0.00 0.00 100 1008.5
20260904075428 69 150 0.0 2.0 0.00 0.00 0.00 100 1008.4
20260904074901 69 150 0.0 2.0 0.00 0.00 0.00 100 1008.4
20260904074428 69 150 0.0 0.0 0.00 0.00 0.00 100 1008.4
20260904074202 69 150 0.0 0.0 0.00 0.00 0.00 100 1008.4
20260904073504 70 150 0.0 2.0 0.00 0.00 0.00 100 1008.5
20260904073428 70 150 0.0 2.0 0.00 0.00 0.00 100 1008.5
20260904072801 70 150 0.0 2.0 0.00 0.00 0.00 100 1008.6
20260904072428 70 150 0.0 2.0 0.00 0.00 0.00 100 1008.5
20260904072059 70 150 0.0 2.0 0.00 0.00 0.00 100 1008.5
20260904071428 70 150 0.0 3.0 0.00 0.00 0.00 100 1008.4
20260904071359 70 150 0.0 3.0 0.00 0.00 0.00 100 1008.4
20260904070659 70 148 0.0 2.0 0.00 0.00 0.00 100 1008.5
20260904070427 70 148 0.0 2.0 0.00 0.00 0.00 100 1008.6
20260904070004 70 148 0.0 2.0 0.00 0.00 0.00 100 1008.5
20260904065427 71 148 0.0 2.0 0.00 0.00 0.00 100 1008.5
20260904065259 71 148 0.0 2.0 0.00 0.00 0.00 100 1008.5
20260904064559 71 148 0.0 2.0 0.00 0.00 0.00 100 1008.5
20260904064427 71 148 0.0 2.0 0.00 0.00 0.00 100 1008.6
20260904063900 71 148 0.0 1.0 0.00 0.00 0.00 100 1008.5
20260904063429 71 148 0.0 0.0 0.00 0.00 0.00 100 1008.7
20260904063204 71 148 0.0 0.0 0.00 0.00 0.00 100 1008.7
20260904062507 71 148 0.0 0.0 0.00 0.00 0.00 100 1008.7
20260904062429 71 148 0.0 0.0 0.00 0.00 0.00 100 1008.7
20260904061803 71 148 0.0 0.0 0.00 0.00 0.00 100 1008.6
20260904061429 71 148 0.0 0.0 0.00 0.00 0.00 100 1008.6
20260904061101 71 148 0.0 0.0 0.00 0.00 0.00 100 1008.6
20260904060428 72 148 0.0 0.0 0.00 0.00 0.00 100 1008.6
20260904060400 72 148 0.0 0.0 0.00 0.00 0.00 100 1008.6
20260904055704 72 148 0.0 0.0 0.00 0.00 0.00 100 1008.7
20260904055428 72 148 0.0 0.0 0.00 0.00 0.00 100 1008.6
20260904055000 72 148 0.0 0.0 0.00 0.00 0.00 100 1008.5
20260904054428 72 148 0.0 0.0 0.00 0.00 0.00 99 1008.5
20260904054303 72 148 0.0 0.0 0.00 0.00 0.00 99 1008.5
20260904053605 72 148 0.0 0.0 0.00 0.00 0.00 99 1008.4
20260904053427 72 148 0.0 0.0 0.00 0.00 0.00 99 1008.5
20260904052900 72 148 0.0 0.0 0.00 0.00 0.00 99 1008.5
20260904052427 72 148 0.0 0.0 0.00 0.00 0.00 99 1008.5
20260904052203 72 148 0.0 0.0 0.00 0.00 0.00 99 1008.5
20260904051503 73 148 0.0 0.0 0.00 0.00 0.00 98 1008.4
20260904051429 73 148 0.0 0.0 0.00 0.00 0.00 98 1008.4
20260904050800 73 148 0.0 0.0 0.00 0.00 0.00 98 1008.4
20260904050429 73 148 0.0 0.0 0.00 0.00 0.00 98 1008.3
20260904045428 74 148 0.0 0.0 0.00 0.00 0.00 96 1008.2
20260904045400 74 148 0.0 0.0 0.00 0.00 0.00 96 1008.2
20260904044701 74 148 0.0 0.0 0.00 0.00 0.00 96 1008.0
20260904044427 74 148 0.0 0.0 0.00 0.00 0.00 96 1008.0
20260904044001 74 148 0.0 1.0 0.00 0.00 0.00 95 1007.9
20260904043427 74 148 0.0 1.0 0.00 0.00 0.00 94 1008.1
20260904043300 74 148 0.0 1.0 0.00 0.00 0.00 94 1008.1
20260904042600 74 148 0.0 0.0 0.00 0.00 0.00 94 1007.9
20260904042427 75 148 0.0 0.0 0.00 0.00 0.00 94 1008.0
20260904041901 75 148 0.0 0.0 0.00 0.00 0.00 94 1007.9
20260904041429 75 148 0.0 1.0 0.00 0.00 0.00 94 1007.9
20260904041201 75 148 0.0 1.0 0.00 0.00 0.00 94 1007.9
20260904040504 75 148 0.0 0.0 0.00 0.00 0.00 93 1008.0
20260904040429 75 148 0.0 0.0 0.00 0.00 0.00 93 1008.0
20260904035801 75 148 0.0 0.0 0.00 0.00 0.00 92 1008.0
20260904035429 76 148 0.0 0.0 0.00 0.00 0.00 93 1007.9
20260904035102 76 148 0.0 0.0 0.00 0.00 0.00 93 1007.9
20260904034429 76 148 0.0 0.0 0.00 0.00 0.00 92 1007.9
20260904034400 76 148 0.0 0.0 0.00 0.00 0.00 92 1007.9
20260904033701 76 148 0.0 0.0 0.00 0.00 0.00 91 1008.0
20260904033428 76 148 0.0 0.0 0.00 0.00 0.00 91 1008.0
20260904033000 76 148 0.0 0.0 0.00 0.00 0.00 91 1007.9
20260904032428 76 148 0.0 0.0 0.00 0.00 0.00 90 1007.8
20260904032300 76 148 0.0 0.0 0.00 0.00 0.00 90 1007.8
20260904031603 77 148 0.0 0.0 0.00 0.00 0.00 90 1007.7
20260904031428 77 148 0.0 0.0 0.00 0.00 0.00 90 1007.7
20260904030902 77 148 0.0 0.0 0.00 0.00 0.00 90 1007.5
20260904030428 77 148 0.0 0.0 0.00 0.00 0.00 89 1007.6
20260904030159 77 148 0.0 0.0 0.00 0.00 0.00 89 1007.6
20260904025505 77 148 0.0 0.0 0.00 0.00 0.00 89 1007.5
20260904025428 77 148 0.0 0.0 0.00 0.00 0.00 89 1007.5
20260904024759 78 148 0.0 0.0 0.00 0.00 0.00 88 1007.3
20260904024428 78 148 0.0 1.0 0.00 0.00 0.00 88 1007.3
20260904024059 78 148 0.0 1.0 0.00 0.00 0.00 88 1007.3
20260904023427 78 148 0.0 3.0 0.00 0.00 0.00 87 1007.1
20260904023400 78 148 0.0 3.0 0.00 0.00 0.00 87 1007.1
20260904022659 78 148 0.0 3.0 0.00 0.00 0.00 87 1007.2
20260904022427 79 146 0.0 1.0 0.00 0.00 0.00 87 1007.2
20260904022000 79 146 0.0 1.0 0.00 0.00 0.00 87 1007.1
20260904021427 79 146 0.0 2.0 0.00 0.00 0.00 86 1007.0
20260904021300 79 146 0.0 2.0 0.00 0.00 0.00 86 1007.0
20260904020559 79 146 0.0 2.0 0.00 0.00 0.00 86 1006.9
20260904020427 80 146 0.0 2.0 0.00 0.00 0.00 85 1006.8
20260904015859 80 146 0.0 2.0 0.00 0.00 0.00 85 1006.8
20260904015427 80 146 0.0 2.0 0.00 0.00 0.00 85 1006.7
20260904015202 80 146 0.0 2.0 0.00 0.00 0.00 85 1006.7
20260904014505 81 146 0.0 1.0 0.00 0.00 0.00 84 1006.6
20260904014429 81 146 0.0 1.0 0.00 0.00 0.00 84 1006.6
20260904013804 81 146 0.0 1.0 0.00 0.00 0.00 85 1006.5
20260904013429 82 146 0.0 1.0 0.00 0.00 0.00 84 1006.4
20260904013100 82 146 0.0 1.0 0.00 0.00 0.00 84 1006.4
20260904012429 82 146 0.0 0.0 0.00 0.00 0.00 83 1006.3
20260904012402 82 146 0.0 0.0 0.00 0.00 0.00 83 1006.3
20260904011702 83 146 0.0 0.0 0.00 0.00 0.00 82 1006.3
20260904011428 83 146 0.0 0.0 0.00 0.00 0.00 81 1006.2
20260904011000 84 146 0.0 0.0 0.00 0.00 0.00 80 1006.2
20260904010428 84 146 0.0 1.0 0.00 0.00 0.00 79 1006.2
20260904010301 84 146 0.0 1.0 0.00 0.00 0.00 79 1006.2
20260904005559 84 146 0.0 1.0 0.00 0.00 0.00 78 1006.2
20260904005428 85 146 0.0 1.0 0.00 0.00 0.00 77 1006.1
20260904004900 85 146 0.0 1.0 0.00 0.00 0.00 76 1006.1
20260904004428 86 146 0.0 1.0 0.00 0.00 0.00 75 1006.2
20260904004159 86 146 0.0 1.0 0.00 0.00 0.00 75 1006.2
20260904003501 86 146 0.0 3.0 0.00 0.00 0.00 74 1006.1
20260904003428 86 146 0.0 3.0 0.00 0.00 0.00 74 1006.1
20260904002801 86 148 1.0 3.0 0.00 0.00 0.00 73 1006.1
20260904002428 86 151 0.0 3.0 0.00 0.00 0.00 72 1006.0
20260904002101 86 151 0.0 3.0 0.00 0.00 0.00 72 1006.0
20260904001428 87 151 0.0 2.0 0.00 0.00 0.00 71 1006.0
20260904001400 87 151 0.0 2.0 0.00 0.00 0.00 71 1006.0
20260904000701 87 151 0.0 2.0 0.00 0.00 0.00 70 1006.0
20260904000428 87 151 0.0 2.0 0.00 0.00 0.00 70 1006.0
20260904000001 88 151 0.0 3.0 0.00 0.00 0.00 69 1006.0
20260903235427 88 151 1.0 4.0 0.00 0.00 0.00 68 1006.0
20260903235259 88 151 1.0 4.0 0.00 0.00 0.00 68 1006.0
20260903234559 88 151 1.0 4.0 0.00 0.00 0.00 67 1006.0
20260903234427 88 130 0.0 3.0 0.00 0.00 0.00 67 1006.0
20260903233859 88 130 1.0 3.0 0.00 0.00 0.00 66 1006.1
20260903233427 88 129 1.0 7.0 0.00 0.00 0.00 66 1006.0
20260903233159 88 129 1.0 7.0 0.00 0.00 0.00 66 1006.0
20260903232500 89 216 1.0 9.0 0.00 0.00 0.00 64 1006.0
20260903232427 89 216 1.0 9.0 0.00 0.00 0.00 64 1006.0
20260903231758 89 178 2.0 9.0 0.00 0.00 0.00 62 1005.8
20260903231427 89 202 2.0 6.0 0.00 0.00 0.00 62 1005.8
20260903231105 89 202 2.0 6.0 0.00 0.00 0.00 62 1005.8
20260903230429 89 164 3.0 8.0 0.00 0.00 0.00 59 1005.9
20260903230402 89 164 3.0 8.0 0.00 0.00 0.00 59 1005.9
20260903225702 89 205 3.0 11.0 0.00 0.00 0.00 58 1005.8
20260903225429 89 207 2.0 11.0 0.00 0.00 0.00 58 1005.8
20260903225002 90 231 2.0 11.0 0.00 0.00 0.00 58 1005.7
20260903224429 90 238 4.0 11.0 0.00 0.00 0.00 58 1005.8
20260903224304 90 238 4.0 11.0 0.00 0.00 0.00 58 1005.8
20260903223603 90 222 4.0 10.0 0.00 0.00 0.00 57 1005.7
20260903223428 90 228 3.0 11.0 0.00 0.00 0.00 57 1005.7
20260903222901 90 231 3.0 11.0 0.00 0.00 0.00 57 1005.6
20260903222428 90 205 3.0 10.0 0.00 0.00 0.00 57 1005.6
20260903222159 90 205 3.0 10.0 0.00 0.00 0.00 57 1005.6
20260903221501 91 226 4.0 14.0 0.00 0.00 0.00 56 1005.5
20260903221428 91 226 4.0 14.0 0.00 0.00 0.00 56 1005.5
20260903220804 91 224 3.0 11.0 0.00 0.00 0.00 56 1005.6
20260903220428 91 244 3.0 11.0 0.00 0.00 0.00 57 1005.6
20260903220059 91 244 3.0 11.0 0.00 0.00 0.00 57 1005.6
20260903215428 92 239 2.0 12.0 0.00 0.00 0.00 58 1005.4
20260903215359 92 239 2.0 12.0 0.00 0.00 0.00 58 1005.4
20260903214701 92 223 5.0 12.0 0.00 0.00 0.00 57 1005.4
20260903214428 92 228 6.0 10.0 0.00 0.00 0.00 56 1005.5
20260903213959 92 242 3.0 9.0 0.00 0.00 0.00 61 1005.3
20260903213428 92 203 2.0 13.0 0.00 0.00 0.00 62 1005.4
20260903213302 92 203 2.0 13.0 0.00 0.00 0.00 62 1005.4
20260903212602 92 216 2.0 13.0 0.00 0.00 0.00 59 1005.3
20260903212427 92 231 6.0 12.0 0.00 0.00 0.00 55 1005.2